User: anonymous   Login
Location: *
(53.4003°S, 165.3236°W)
Time: 05:51:45
(UTC+00:00)
Language:

Cosmos 2322 - Orbit

View from above orbital plane
View from above orbital plane
View from above satellite
View from above satellite

Ground track
Ground track

The orbit data is extracted from the following two-line orbital elements,

1 23704U 95058A   24112.55996496  .00000380  00000-0  22665-3 0  9991
2 23704  70.9875 202.5530 0011693 269.9177  90.0605 14.13608663468941
Epoch (UTC): 21 April 2024 13:26:20
Eccentricity: 0.0011693
inclination: 70.9875°
perigee height: 838 km
apogee height: 855 km
right ascension of ascending node: 202.5530°
argument of perigee: 269.9177°
revolutions per day: 14.13608663
mean anomaly at epoch: 90.0605°
orbit number at epoch: 46894

The dashed part of the orbit path shows where the satellite is in the earth's shadow,  

DLR